Regional Weather Roundup
Issued by NWS

Home | Current Version | Previous Version | Text Only | Print | Product List | Glossary Off
Versions: 1 2 3 4 5 6 7 8 9 10 11 12 13 14 15 16 17 18 19 20 21 22 23 24 25 26 27 28 29 30 31 32 33 34 35 36 37 38 39 40 41 42 43 44 45 46 47 48 49 50

000
ASUS43 KDTX 232310
RWRMI
MICHIGAN HOURLY REGIONAL WEATHER ROUNDUP
NATIONAL WEATHER SERVICE DETROIT/PONTIAC MI
700 PM EDT SAT MAY 23 2015

NOTE: "FAIR" INDICATES FEW OR NO CLOUDS BELOW 12,000 FEET WITH NO
SIGNIFICANT WEATHER AND/OR OBSTRUCTION TO VISIBILITY.

MIZ047>049-052>055-059>063-066>070-074>076-081>083-240000-
SOUTHEAST LOWER MICHIGAN

CITY           SKY/WX    TMP DP  RH WIND       PRES   REMARKS
ADRIAN         SUNNY     76  38  25 W6        30.27F
ALMA           SUNNY     74  34  22 W9        30.25F
ANN ARBOR      SUNNY     74  38  27 W8        30.27F
BAD AXE        SUNNY     73  31  20 W7        30.25S
CARO           SUNNY     73  37  26 SW10      30.25S
DETROIT CITY   SUNNY     72  37  28 SW8       30.28F
DETROIT        MOSUNNY   72  40  31 SE8       30.29F
FLINT          SUNNY     75  32  20 W9        30.26F
GROSSE ILE     SUNNY     68  39  34 SE7       30.27F
HILLSDALE      SUNNY     76  38  25 SW8       30.28S
HOWELL         SUNNY     74  31  21 W5        30.27F

CITY           SKY/WX    TMP DP  RH WIND       PRES   REMARKS
JACKSON        SUNNY     74  41  30 W6        30.27F
LAMBERTVILLE   SUNNY     72  39  30 E5        30.28F
LANSING        SUNNY     75  36  24 W8        30.26F
LAPEER         FAIR      73  28  19 W6        30.27F
MASON          SUNNY     73  37  26 W7        30.27F
MONROE         SUNNY     70  41  35 SE8       30.27F
MT. CLEMENS    MOSUNNY   69  44  41 S9        30.25F
PONTIAC        MOSUNNY   73  32  22 VRB3      30.27F
PORT HOPE        N/A     74  32  21 VRB5G20   30.22F
PORT HURON     SUNNY     70  37  30 S9        30.27F
TRI CITIES     SUNNY     76  35  22 W14       30.24F
MIDLAND        FAIR      76  34  22 W10       30.23F
TROY           SUNNY     76  31  19 SW5       30.29F
SAGINAW HB     SUNNY     77  28  16 SW9       30.24F
$$
MIZ043>046-050>051-056>058-064>065-071>073-077>080-240000-
SOUTHWEST LOWER MICHIGAN

CITY           SKY/WX    TMP DP  RH WIND       PRES   REMARKS
BATTLE CREEK   SUNNY     76  42  29 W7        30.26F
BENTON HARBOR  SUNNY     74  42  31 VRB5      30.23F
BIG RAPIDS     SUNNY     73  24  16 SW13G21   30.24F
COLDWATER      SUNNY     75  39  27 SW5       30.26F
FREMONT        FAIR      73  31  21 SW10      30.25F
HOLLAND        SUNNY     75  41  29 SW12      30.26S
GRAND RAPIDS   MOSUNNY   77  36  22 W14       30.25F
IONIA          FAIR      76  36  22 W8        30.24F
KALAMAZOO      SUNNY     77  41  27 W7        30.25F
LUDINGTON      MOSUNNY   71  31  22 S10       30.25F
MARSHALL       SUNNY     76  41  29 SW3       30.26F
MOUNT PLEASANT SUNNY     75  36  24 SW9       30.23F
MUSKEGON       PTSUNNY   72  35  25 SW5       30.25F
SOUTH HAVEN    SUNNY     76  35  22 NW5       30.24F
$$
MIZ016>042-240000-
NORTHERN LOWER MICHIGAN

CITY           SKY/WX    TMP DP  RH WIND       PRES   REMARKS
ALPENA         SUNNY     76  33  21 W14       30.18F
BEAVER ISLAND  SUNNY     63  22  21 SW17G25   30.19F
BELLAIRE       SUNNY     74  34  23 SW5       30.21F
CADILLAC       SUNNY     73  35  24 SW10G17   30.23F
CHARLEVOIX     SUNNY     71  37  29 SW12G17   30.22F
FRANKFORT      MOSUNNY   69  19  15 SW10G16   30.22F
GAYLORD        MOSUNNY   71  32  23 W16       30.23S
GRAYLING       SUNNY     73  32  21 W12       30.23S
HARBOR SPRINGS SUNNY     61  37  41 W5        30.20F
HOUGHTON LAKE  SUNNY     72  37  28 W13       30.23F
MANISTEE       MOSUNNY   72  36  26 SW13      30.24F
OSCODA         SUNNY     77  32  19 W12       30.18F
PELLSTON       MOSUNNY   71  35  26 SW10G23   30.19F
ROGERS CITY    SUNNY     74  37  26 SW16      30.18F
TRAVERSE CITY  MOSUNNY   74  34  23 SW8       30.21F
$$
MIZ007>008-015-240000-
EASTERN UPPER MICHIGAN

CITY           SKY/WX    TMP DP  RH WIND       PRES   REMARKS
KINROSS        SUNNY     68  36  30 SW13G22   30.16F
MACKINAC ISLAN SUNNY     62  33  33 W18G31    30.17S
NEWBERRY       SUNNY     68  37  32 SW15G28   30.15S
S. S. MARIE    SUNNY     70  37  29 SW15G24   30.13F
MUNISING         N/A     70  39  32 CALM      30.12S
$$
MIZ004>006-011>014-085-240000-
CENTRAL UPPER MICHIGAN

CITY           SKY/WX    TMP DP  RH WIND       PRES   REMARKS
MANISTIQUE     SUNNY     53  37  54 SW12      30.17F
ESCANABA       MOSUNNY   66  41  39 S13G22    30.14S
MENOMINEE      MOSUNNY   73  39  29 SW12      30.15F
SAWYER-GWINN   MOSUNNY   75  37  25 CALM      30.13S
$$
MIZ001>003-009>011-084-240000-
WESTERN UPPER MICHIGAN

CITY           SKY/WX    TMP DP  RH WIND       PRES   REMARKS
IRON MOUNTAIN  MOSUNNY   77  31  18 SW12      30.14S
HOUGHTON       SUNNY     74  37  26 W18       30.11F
COPPER HARBOR    N/A     78  35  21 W9G22     30.07S
IRONWOOD       PTSUNNY   75  34  22 W13G18    30.11S
$$

ABBREVIATIONS USED IN REMARKS
   TC - TEMPERATURE IN CELSIUS
  WCI - WIND CHILL INDEX
   HX - HEAT INDEX
  VSB - VISIBILITY



USA.gov is the U.S. government's official web portal to all federal, state and local government web resources and services.